When you browse on this site, cookies collect data to enhance your experience and personalize the content and advertising you see.
Visit our Privacy Policy to learn more. By continuing to use the site, you agree to this use of cookies and data.
  • In Romania
  • List of Countries
  • For 7 days
  • Water Temperature
  • Weather Map
  • Weather Widgets
  • user-avatar
    Login

    Hourly Weather Jerusalem

    Today, 30 March, Monday

    Time Temperature Precipitation Wind Pressure Humidity
    00:00 +11°C° 0 mm 4 mps 693 mmHg 53%
    01:00 +10°C° 0 mm 4 mps 692 mmHg 55%
    02:00 +11°C° 0 mm 3 mps 692 mmHg 52%
    03:00 +10°C° 0 mm 2 mps 692 mmHg 54%
    04:00 +10°C° 0 mm 2 mps 692 mmHg 55%
    05:00 +11°C° 0 mm 1 mps 692 mmHg 57%
    06:00 +12°C° 0 mm 1 mps 692 mmHg 52%
    07:00 +14°C° 0 mm 1 mps 693 mmHg 47%
    08:00 +15°C° 0 mm 1 mps 693 mmHg 41%
    09:00 +16°C° 0 mm 1 mps 693 mmHg 38%
    10:00 +18°C° 0 mm 1 mps 693 mmHg 35%
    11:00 +18°C° 0 mm 2 mps 693 mmHg 32%
    12:00 +19°C° 0 mm 2 mps 693 mmHg 31%
    13:00 +20°C° 0 mm 2 mps 693 mmHg 30%
    14:00 +20°C° 0 mm 2 mps 692 mmHg 29%
    15:00 +20°C° 0 mm 2 mps 692 mmHg 33%
    16:00 +21°C° 0 mm 1 mps 692 mmHg 36%
    17:00 +21°C° 0 mm 1 mps 692 mmHg 39%
    18:00 +19°C° 0 mm 1 mps 691 mmHg 40%
    19:00 +17°C° 0 mm 2 mps 691 mmHg 42%
    20:00 +16°C° 0 mm 2 mps 691 mmHg 43%
    21:00 +16°C° 0 mm 2 mps 691 mmHg 44%
    22:00 +15°C° 0 mm 2 mps 691 mmHg 44%
    23:00 +14°C° 0 mm 3 mps 691 mmHg 45%

    Tomorrow, 31 March, Tuesday

    Time Temperature Precipitation Wind Pressure Humidity
    00:00 +14°C° 0 mm 3 mps 690 mmHg 45%
    01:00 +14°C° 0 mm 3 mps 690 mmHg 46%
    02:00 +14°C° 0 mm 3 mps 689 mmHg 46%
    03:00 +14°C° 0 mm 3 mps 689 mmHg 45%
    04:00 +13°C° 0 mm 3 mps 689 mmHg 44%
    05:00 +13°C° 0 mm 3 mps 689 mmHg 43%
    06:00 +16°C° 0 mm 3 mps 689 mmHg 43%
    07:00 +17°C° 0 mm 3 mps 689 mmHg 42%
    08:00 +18°C° 0 mm 2 mps 690 mmHg 41%
    09:00 +19°C° 0 mm 3 mps 690 mmHg 37%
    10:00 +20°C° 0 mm 3 mps 690 mmHg 34%
    11:00 +22°C° 0 mm 3 mps 690 mmHg 31%
    12:00 +22°C° 0 mm 5 mps 689 mmHg 30%
    13:00 +23°C° 0 mm 6 mps 689 mmHg 30%
    14:00 +23°C° 0 mm 8 mps 688 mmHg 29%
    15:00 +22°C° 0 mm 7 mps 688 mmHg 35%
    16:00 +20°C° 0 mm 7 mps 688 mmHg 40%
    17:00 +18°C° 0 mm 7 mps 688 mmHg 46%
    18:00 +17°C° 0 mm 6 mps 688 mmHg 51%
    19:00 +15°C° 0 mm 4 mps 689 mmHg 57%
    20:00 +14°C° 0 mm 3 mps 689 mmHg 62%
    21:00 +13°C° 0 mm 4 mps 689 mmHg 66%
    22:00 +13°C° 0 mm 5 mps 690 mmHg 69%
    23:00 +11°C° 0 mm 6 mps 690 mmHg 73%

    Day after tomorrow, 1 April, Wednesday

    Time Temperature Precipitation Wind Pressure Humidity
    00:00 +11°C° 0 mm 7 mps 690 mmHg 76%
    01:00 +10°C° 0 mm 7 mps 689 mmHg 80%
    02:00 +10°C° 0 mm 7 mps 689 mmHg 84%
    03:00 +10°C° 0 mm 7 mps 689 mmHg 85%
    04:00 +9°C° 0 mm 6 mps 689 mmHg 86%
    05:00 +9°C° 0 mm 6 mps 690 mmHg 87%
    06:00 +10°C° 0.1 mm 6 mps 690 mmHg 83%
    07:00 +10°C° 0.1 mm 7 mps 690 mmHg 80%
    08:00 +11°C° 0.1 mm 7 mps 691 mmHg 77%
    09:00 +12°C° 0.2 mm 7 mps 691 mmHg 74%
    10:00 +12°C° 0.2 mm 7 mps 692 mmHg 72%
    11:00 +13°C° 0.2 mm 8 mps 692 mmHg 70%
    12:00 +13°C° 0.1 mm 8 mps 692 mmHg 69%
    13:00 +15°C° 0.1 mm 8 mps 692 mmHg 68%
    14:00 +15°C° 0.1 mm 8 mps 691 mmHg 67%
    15:00 +14°C° 0.1 mm 7 mps 691 mmHg 70%
    16:00 +14°C° 0.1 mm 7 mps 691 mmHg 73%
    17:00 +12°C° 0.1 mm 7 mps 691 mmHg 76%
    18:00 +11°C° 0 mm 6 mps 692 mmHg 78%
    19:00 +11°C° 0 mm 4 mps 692 mmHg 80%
    20:00 +11°C° 0 mm 3 mps 692 mmHg 82%
    21:00 +10°C° 0 mm 2 mps 692 mmHg 84%
    22:00 +10°C° 0 mm 2 mps 692 mmHg 85%
    23:00 +11°C° 0 mm 1 mps 692 mmHg 87%

    2 April, Thursday

    Time Temperature Precipitation Wind Pressure Humidity
    00:00 +11°C° 0 mm 1 mps 692 mmHg 87%
    01:00 +10°C° 0 mm 2 mps 692 mmHg 86%
    02:00 +9°C° 0 mm 2 mps 691 mmHg 86%
    03:00 +9°C° 0 mm 2 mps 692 mmHg 86%
    04:00 +10°C° 0 mm 1 mps 692 mmHg 87%
    05:00 +10°C° 0 mm 1 mps 692 mmHg 87%
    06:00 +11°C° 0 mm 1 mps 692 mmHg 83%
    07:00 +11°C° 0 mm 1 mps 693 mmHg 78%
    08:00 +12°C° 0 mm 1 mps 693 mmHg 73%
    09:00 +13°C° 0 mm 1 mps 693 mmHg 68%
    10:00 +14°C° 0 mm 2 mps 693 mmHg 62%
    11:00 +15°C° 0 mm 2 mps 693 mmHg 56%
    12:00 +16°C° 0 mm 3 mps 693 mmHg 55%
    13:00 +16°C° 0 mm 3 mps 693 mmHg 54%
    14:00 +17°C° 0 mm 4 mps 693 mmHg 53%
    15:00 +15°C° 0 mm 4 mps 692 mmHg 57%
    16:00 +15°C° 0 mm 4 mps 692 mmHg 60%
    17:00 +14°C° 0 mm 4 mps 692 mmHg 64%
    18:00 +13°C° 0 mm 4 mps 692 mmHg 67%
    19:00 +12°C° 0 mm 3 mps 692 mmHg 70%
    20:00 +11°C° 0 mm 3 mps 693 mmHg 73%
    21:00 +12°C° 0 mm 2 mps 693 mmHg 72%
    22:00 +10°C° 0 mm 2 mps 693 mmHg 71%
    23:00 +10°C° 0 mm 2 mps 693 mmHg 71%

    3 April, Friday

    Time Temperature Precipitation Wind Pressure Humidity
    00:00 +10°C° 0 mm 2 mps 692 mmHg 73%
    01:00 +9°C° 0 mm 2 mps 692 mmHg 76%
    02:00 +9°C° 0 mm 2 mps 692 mmHg 78%
    03:00 +9°C° 0 mm 2 mps 692 mmHg 77%
    04:00 +9°C° 0 mm 2 mps 692 mmHg 76%
    05:00 +9°C° 0 mm 2 mps 692 mmHg 75%
    06:00 +10°C° 0 mm 3 mps 693 mmHg 72%
    07:00 +11°C° 0 mm 3 mps 693 mmHg 68%
    08:00 +12°C° 0 mm 4 mps 693 mmHg 65%
    09:00 +13°C° 0 mm 5 mps 694 mmHg 61%
    10:00 +14°C° 0 mm 5 mps 694 mmHg 57%
    11:00 +15°C° 0 mm 5 mps 694 mmHg 53%
    12:00 +15°C° 0 mm 6 mps 694 mmHg 54%
    13:00 +15°C° 0 mm 6 mps 694 mmHg 54%
    14:00 +15°C° 0 mm 6 mps 694 mmHg 55%
    15:00 +14°C° 0 mm 6 mps 694 mmHg 58%
    16:00 +14°C° 0 mm 6 mps 694 mmHg 61%
    17:00 +13°C° 0 mm 5 mps 694 mmHg 64%
    18:00 +12°C° 0 mm 4 mps 694 mmHg 67%
    19:00 +11°C° 0 mm 3 mps 694 mmHg 70%
    20:00 +10°C° 0 mm 2 mps 694 mmHg 73%
    21:00 +10°C° 0 mm 2 mps 694 mmHg 66%
    22:00 +10°C° 0 mm 2 mps 694 mmHg 60%
    23:00 +11°C° 0 mm 1 mps 694 mmHg 53%

    4 April, Saturday

    Time Temperature Precipitation Wind Pressure Humidity
    00:00 +11°C° 0 mm 1 mps 694 mmHg 51%
    01:00 +10°C° 0 mm 1 mps 694 mmHg 48%
    02:00 +10°C° 0 mm 1 mps 694 mmHg 46%
    03:00 +10°C° 0 mm 1 mps 694 mmHg 45%
    04:00 +10°C° 0 mm 1 mps 694 mmHg 43%
    05:00 +10°C° 0 mm 1 mps 694 mmHg 42%
    06:00 +12°C° 0 mm 1 mps 694 mmHg 40%
    07:00 +13°C° 0 mm 2 mps 695 mmHg 38%
    08:00 +15°C° 0 mm 2 mps 695 mmHg 35%
    09:00 +16°C° 0 mm 1 mps 695 mmHg 34%
    10:00 +19°C° 0 mm 1 mps 695 mmHg 32%
    11:00 +20°C° 0 mm 1 mps 695 mmHg 31%
    12:00 +21°C° 0 mm 1 mps 695 mmHg 30%
    13:00 +22°C° 0 mm 1 mps 695 mmHg 28%
    14:00 +23°C° 0 mm 1 mps 695 mmHg 27%
    15:00 +23°C° 0 mm 1 mps 694 mmHg 32%
    16:00 +22°C° 0 mm 1 mps 694 mmHg 37%
    17:00 +22°C° 0 mm 1 mps 694 mmHg 42%
    18:00 +21°C° 0 mm 1 mps 694 mmHg 43%
    19:00 +19°C° 0 mm 1 mps 694 mmHg 43%
    20:00 +18°C° 0 mm 1 mps 693 mmHg 44%
    21:00 +18°C° 0 mm 1 mps 693 mmHg 42%
    22:00 +17°C° 0 mm 2 mps 693 mmHg 39%
    23:00 +17°C° 0 mm 2 mps 693 mmHg 36%
    Show more